INTELSAT 9 (IS-9)

Last updated on Jan. 28, 2020, 4:40 a.m. UTC

1 26451U 00043A   20027.85097595 -.00000132  00000-0  00000-0 0  9991
2 26451   5.4120  66.5589 0004140 254.9108  99.7640  1.00106478 20755
UTC
Height (km)
Latitude
Longitude
Inclination
Orbital Period
UTC large
Height (km)
Speed (km/s)
/
Latitude / Longitude
Inclination (degrees)
Orbital Period (minutes)
Azimuth
Elevation
Range (km)
Doppler Factor
iOS Compass Heading
iOS Angle

Next 30 passes for location: Hong Kong

Rise time Rise Azimuth (degrees) Set time Set Azimuth (degrees) Duration Max altitude (degrees)

No matching passes for this satellites